FW3743 Weather Reports


Display with metric or nautical units.
time (UTC)temp
F
wind
direction
speed
MPH
gust
MPH
rain 1hr
in
rain 24hr
in
rain mn
in
humidity
%
barometer
mb
20260509093436 39 0.0 0.0 0.00 0.05 0.00 91 1010.1
20260509092433 39 0.0 0.0 0.00 0.05 0.00 92 1010.3
20260509091436 39 0.0 0.0 0.00 0.05 0.00 93 1010.2
20260509090434 39 0.0 0.0 0.00 0.05 0.00 92 1010.4
20260509085436 39 0.0 0.0 0.00 0.05 0.00 92 1010.6
20260509084433 39 0.0 0.0 0.00 0.05 0.00 92 1010.7
20260509083436 39 0.0 0.0 0.00 0.05 0.00 93 1010.7
20260509082453 39 0.0 0.0 0.00 0.05 0.00 94 1010.9
20260509081456 39 0.0 0.0 0.00 0.05 0.00 95 1011.0
20260509080433 38 0.0 0.0 0.00 0.05 0.00 96 1011.1
20260509075456 38 0.0 0.0 0.00 0.05 0.00 96 1011.0
20260509074433 38 0.0 0.0 0.00 0.05 0.00 95 1011.2
20260509073436 39 0.0 0.0 0.00 0.05 0.00 94 1011.0
20260509072433 39 0.0 0.0 0.00 0.05 0.00 94 1011.1
20260509071436 39 0.0 0.0 0.00 0.05 0.00 94 1011.1
20260509070433 39 0.0 0.0 0.00 0.05 0.00 94 1011.2
20260509065436 39 0.0 0.0 0.00 0.05 0.00 93 1011.0
20260509064433 39 0.0 0.0 0.00 0.05 0.00 92 1011.3
20260509063436 39 0.0 0.0 0.00 0.05 0.00 91 1011.4
20260509062433 40 0.0 0.0 0.00 0.05 0.00 90 1011.5
20260509061436 40 0.0 0.0 0.00 0.07 0.00 88 1011.3
20260509060433 41 0.0 0.0 0.00 0.08 0.00 88 1011.8
20260509055436 41 0.0 0.0 0.00 0.08 0.00 87 1011.6
20260509054433 41 0.0 0.0 0.00 0.08 0.00 88 1011.9
20260509053436 40 0.0 0.0 0.00 0.08 0.00 89 1011.8
20260509052433 40 0.0 0.0 0.00 0.08 0.00 89 1012.2
20260509051456 40 0.0 0.0 0.00 0.08 0.00 91 1012.0
20260509050453 39 0.0 0.0 0.00 0.08 0.00 92 1012.3
20260509045436 39 0.0 0.0 0.00 0.08 0.00 93 1012.1
20260509044433 39 0.0 0.0 0.00 0.08 0.00 94 1012.3
20260509043436 38 0.0 0.0 0.00 0.08 0.00 95 1012.2
20260509042433 38 0.0 0.0 0.00 0.08 0.00 94 1012.4
20260509041436 38 0.0 0.0 0.00 0.08 0.00 94 1012.2
20260509040433 38 0.0 0.0 0.00 0.08 0.00 94 1012.4
20260509035436 38 0.0 0.0 0.00 0.08 0.08 93 1012.2
20260509034433 39 0.0 0.0 0.00 0.08 0.08 93 1012.4
20260509033436 39 0.0 0.0 0.00 0.08 0.08 93 1012.3
20260509032432 39 0.0 0.0 0.00 0.08 0.08 92 1012.5
20260509031436 39 0.0 0.0 0.00 0.08 0.08 91 1012.1
20260509030433 39 0.0 0.0 0.00 0.08 0.08 91 1012.6
20260509025436 39 0.0 0.0 0.00 0.08 0.08 90 1012.3
20260509024433 40 0.0 0.0 0.00 0.08 0.08 90 1012.6
20260509023436 40 0.0 0.0 0.00 0.08 0.08 90 1012.3
20260509022453 40 0.0 0.0 0.00 0.08 0.08 89 1012.6
20260509021436 40 0.0 0.0 0.00 0.08 0.08 88 1012.5
20260509020432 41 0.0 0.0 0.00 0.08 0.08 87 1012.6
20260509015436 41 0.0 0.0 0.00 0.08 0.08 86 1012.4
20260509014453 41 0.0 0.0 0.00 0.08 0.08 84 1012.4
20260509013436 42 0.0 0.0 0.00 0.08 0.08 82 1012.1
20260509012432 42 0.0 0.0 0.00 0.08 0.08 80 1012.1
20260509011436 42 0.0 0.0 0.00 0.08 0.08 79 1011.7
20260509010433 43 0.0 0.0 0.00 0.08 0.08 77 1011.9
20260509005436 44 0.0 0.0 0.00 0.08 0.08 75 1011.5
20260509004433 45 0.0 0.0 0.00 0.08 0.08 74 1011.7
20260509003436 45 0.0 0.0 0.00 0.08 0.08 71 1011.4
20260509002432 46 0.0 0.0 0.00 0.08 0.08 68 1011.4
20260509001436 48 0.0 0.0 0.00 0.08 0.08 64 1011.4
20260509000433 49 0.0 0.0 0.00 0.08 0.08 62 1011.4
20260508235516 51 0.0 0.0 0.00 0.08 0.08 57 1011.2
20260508234433 52 0.0 0.0 0.00 0.08 0.08 52 1011.0
20260508233456 53 0.0 0.0 0.00 0.08 0.08 46 1011.0
20260508232433 54 0.0 0.0 0.00 0.08 0.08 45 1010.8
20260508231436 54 0.0 0.0 0.00 0.08 0.08 45 1010.9
20260508230433 55 0.0 0.0 0.00 0.08 0.08 46 1011.0
20260508225436 55 0.0 0.0 0.00 0.08 0.08 44 1011.0
20260508224452 56 0.0 0.0 0.00 0.08 0.08 44 1011.1
20260508223436 56 0.0 0.0 0.00 0.08 0.08 43 1011.2
20260508222453 56 0.0 0.0 0.00 0.08 0.08 47 1011.4
20260508221436 57 0.0 0.0 0.00 0.08 0.08 48 1011.2
20260508220432 57 0.0 0.0 0.00 0.08 0.08 50 1011.5
20260508215436 57 0.0 0.0 0.00 0.08 0.08 50 1011.3
20260508214513 56 0.0 0.0 0.00 0.08 0.08 48 1011.5
20260508213456 56 286 0.0 1.0 0.00 0.08 0.08 50 1011.4
20260508212433 56 0.0 0.0 0.00 0.08 0.08 52 1011.4
20260508211436 56 286 0.0 1.0 0.00 0.08 0.08 52 1011.2
20260508210433 55 39 0.0 5.0 0.00 0.08 0.08 52 1011.4
20260508205436 56 336 0.0 2.0 0.00 0.08 0.08 54 1011.5
20260508204513 53 0.0 0.0 0.00 0.08 0.08 56 1011.7
20260508203436 54 0.0 0.0 0.00 0.08 0.08 56 1011.5
20260508202453 56 0.0 0.0 0.00 0.08 0.08 58 1011.7
20260508201436 54 0.0 0.0 0.00 0.08 0.08 60 1011.6
20260508200433 53 0.0 0.0 0.00 0.08 0.08 60 1011.9
20260508195436 53 0.0 0.0 0.00 0.08 0.08 58 1011.9
20260508194432 54 341 2.0 7.0 0.00 0.08 0.08 57 1012.2
20260508193437 54 0.0 0.0 0.00 0.08 0.08 59 1012.0
20260508192433 54 0.0 0.0 0.00 0.08 0.08 62 1012.1
20260508191436 53 0.0 0.0 0.00 0.08 0.08 64 1012.2
20260508190432 52 0.0 0.0 0.00 0.08 0.08 66 1012.3
20260508185436 54 0.0 0.0 0.00 0.08 0.08 67 1012.2
20260508184433 53 0.0 0.0 0.00 0.08 0.08 68 1012.4
20260508183436 52 354 0.0 1.0 0.00 0.08 0.08 67 1012.6
20260508182433 52 320 0.0 2.0 0.00 0.08 0.08 68 1012.6
20260508181456 51 275 0.0 7.0 0.00 0.08 0.08 68 1012.6
20260508180433 52 287 0.0 1.0 0.00 0.08 0.08 71 1012.8
20260508175436 50 309 2.0 11.0 0.00 0.08 0.08 74 1012.4
20260508174452 50 0.0 0.0 0.00 0.08 0.08 74 1012.8
20260508173436 49 290 0.0 8.0 0.00 0.08 0.08 73 1012.6
20260508172453 49 0.0 0.0 0.00 0.08 0.08 75 1012.9
20260508171436 50 0.0 0.0 0.00 0.08 0.08 76 1012.8
20260508170453 47 0.0 0.0 0.00 0.08 0.08 76 1013.1
20260508165436 48 0.0 0.0 0.00 0.08 0.08 80 1013.0
20260508164453 50 0.0 0.0 0.00 0.08 0.08 81 1013.2
20260508163536 47 0.0 0.0 0.00 0.08 0.08 84 1012.9
20260508162433 47 0.0 0.0 0.00 0.08 0.08 92 1013.3
20260508161436 46 0.0 0.0 0.01 0.08 0.08 95 1013.1
20260508160433 44 0.0 0.0 0.01 0.08 0.08 97 1013.4
20260508155456 44 0.0 0.0 0.01 0.08 0.08 98 1013.4
20260508154453 43 0.0 0.0 0.02 0.08 0.08 97 1013.5
20260508153436 43 0.0 0.0 0.02 0.07 0.07 96 1013.2
20260508152432 43 0.0 0.0 0.02 0.07 0.07 96 1013.5
20260508151436 43 310 0.0 7.0 0.00 0.06 0.06 96 1013.3
20260508150433 45 0.0 0.0 0.02 0.06 0.06 96 1013.3
20260508145436 43 0.0 0.0 0.03 0.06 0.06 96 1013.1
20260508144432 44 0.0 0.0 0.02 0.05 0.05 97 1013.4
20260508143436 44 0.0 0.0 0.02 0.05 0.05 97 1013.1
20260508142432 43 0.0 0.0 0.02 0.05 0.05 96 1013.2
20260508141456 43 0.0 0.0 0.02 0.05 0.05 95 1013.2
20260508140513 45 0.0 0.0 0.00 0.03 0.03 93 1013.1
20260508135436 45 0.0 0.0 0.00 0.03 0.03 91 1012.8
20260508134452 45 0.0 0.0 0.00 0.03 0.03 88 1012.8
20260508133456 45 0.0 0.0 0.00 0.03 0.03 88 1012.7
20260508132432 45 0.0 0.0 0.00 0.03 0.03 87 1013.0
20260508131456 45 0.0 0.0 0.00 0.03 0.03 86 1012.6
20260508130453 45 0.0 0.0 0.00 0.03 0.03 84 1012.7
20260508125436 46 0.0 0.0 0.00 0.03 0.03 87 1012.6
20260508124432 47 0.0 0.0 0.00 0.03 0.03 87 1012.5
20260508123436 47 0.0 0.0 0.00 0.03 0.03 89 1012.0
20260508122433 46 0.0 0.0 0.00 0.03 0.03 90 1012.4
20260508121436 45 0.0 0.0 0.00 0.03 0.03 91 1012.3
20260508120432 47 0.0 0.0 0.00 0.03 0.03 91 1012.3
20260508115436 46 0.0 0.0 0.00 0.03 0.03 92 1012.1
20260508114452 45 0.0 0.0 0.00 0.03 0.03 96 1012.3
20260508113436 42 0.0 0.0 0.00 0.03 0.03 99 1012.3
20260508112453 42 0.0 0.0 0.00 0.03 0.03 99 1012.6
20260508111436 42 0.0 0.0 0.00 0.03 0.03 99 1012.3
20260508110432 41 0.0 0.0 0.00 0.03 0.03 99 1012.7
20260508105436 41 0.0 0.0 0.00 0.03 0.03 99 1012.6
20260508104432 40 0.0 0.0 0.00 0.03 0.03 99 1011.7
20260508103436 40 0.0 0.0 0.00 0.03 0.03 99 1012.3
20260508102433 39 0.0 0.0 0.00 0.03 0.03 99 1011.4
20260508101436 38 0.0 0.0 0.00 0.03 0.03 99 1012.2
20260508100432 38 0.0 0.0 0.00 0.03 0.03 99 1011.6
20260508095436 37 0.0 0.0 0.00 0.03 0.03 99 1012.4
20260508094433 37 0.0 0.0 0.00 0.03 0.03 99 1011.3